Location: Arrodets-la-Barthe
(43.0306°N, 0.2829°E)
Time: 11:49:38
(UTC+00:00)

DUCHIFAT 1 - Visible Passes

Search period start: 02 April 2023 00:00
Search period end: 12 April 2023 00:00
Orbit: 569 x 586 km, 98.1° (Epoch: 01 April)

Date Brightness Start Highest point End Pass type
(mag) Time Alt. Az. Time Alt. Az. Time Alt. Az.
02 Apr ? 03:06:59 10° NNE 03:10:31 58° ENE 03:10:31 58° ENE visible
02 Apr ? 04:44:12 10° NW 04:45:43 12° WNW 04:46:48 11° WNW visible
03 Apr ? 03:11:02 10° NNE 03:14:47 68° ENE 03:14:47 68° ENE visible
03 Apr ? 04:48:44 10° NW 04:49:45 11° WNW 04:50:46 10° WNW visible
04 Apr ? 03:15:06 10° NNE 03:19:02 79° ENE 03:19:02 79° ENE visible
05 Apr ? 03:19:08 10° NNE 03:23:13 89° ESE 03:23:15 88° SSE visible
06 Apr ? 03:23:08 10° NNE 03:27:13 83° WNW 03:27:27 78° SW visible
07 Apr ? 03:27:08 10° N 03:31:12 75° WNW 03:31:36 67° SW visible
08 Apr ? 03:31:06 10° N 03:35:09 67° WNW 03:35:45 57° WSW visible
09 Apr ? 02:02:16 10° ENE 02:03:28 11° E 02:03:36 11° E visible
09 Apr ? 03:35:04 10° N 03:39:05 61° WNW 03:39:52 49° WSW visible
10 Apr ? 02:05:43 10° ENE 02:07:25 12° E 02:07:41 12° E visible
10 Apr ? 03:39:00 10° N 03:42:59 55° WNW 03:43:57 42° WSW visible
11 Apr ? 02:09:17 10° ENE 02:11:21 14° E 02:11:45 13° E visible
11 Apr ? 03:42:55 10° N 03:46:51 49° WNW 03:48:01 37° WSW visible
